Change the Weather History Date:

Tuesday, April 30, 2013

  Actual Average (KAND) Record (KAND)
Temperature  
Mean Temperature 64 °F -  
Max Temperature 75 °F 76 °F 90 °F (1987)
Min Temperature 53 °F 54 °F 39 °F (2008)
Degree Days  
Heating Degree Days 1    
Growing Degree Days 14 (Base 50)    
Moisture  
Dew Point 58 °F    
Average Humidity 87    
Maximum Humidity 100    
Minimum Humidity 61    
Precipitation  
Precipitation 0.00 in - - ()
Sea Level Pressure  
Sea Level Pressure 30.05 in    
Wind  
Wind Speed 2 mph (NE)    
Max Wind Speed 9 mph    
Max Gust Speed -    
Visibility 6 miles    
Events Fog    
Averages and records for this station are not official NWS values.
T = Trace of Precipitation, MM = Missing Value Source: NWS Daily Summary

Daily Weather History Graph

Daily Weather History Graph

Search for Another Location

Airport or City:

Trip Planner

Search our weather history database for the weather conditions in past years. The results will help you decide how hot, cold, wet, or windy it might be!

Date:

Astronomy

Apr. 30, 2013 Rise Set
Actual Time 6:39 AM EDT 8:12 PM EDT
Civil Twilight 6:13 AM EDT 8:39 PM EDT
Nautical Twilight 5:41 AM EDT 9:11 PM EDT
Astronomical Twilight 5:07 AM EDT 9:44 PM EDT
Moon 12:31 AM EDT (4/30) 11:09 AM EDT (4/30)
Length of Visible Light 14h 25m
Length of Day
13h 32m
Waning Gibbous, 70% of the Moon is Illuminated
Apr 30
Waning Gibbous
May 2
Last Quarter
May 9
New
May 18
First Quarter
May 25
Full

Hourly Weather History & Observations

Time (EDT) Temp. Dew Point Humidity Pressure Visibility Wind Dir Wind Speed Gust Speed Precip Events Conditions
12:56 AM 55.9 °F 55.0 °F 97% 29.99 in 8.0 mi Calm Calm - N/A   Clear
1:17 AM 55.4 °F 53.6 °F 94% 30.00 in 8.0 mi Calm Calm - N/A   Partly Cloudy
1:30 AM 55.4 °F 53.6 °F 94% 30.00 in 2.0 mi Calm Calm - N/A   Partly Cloudy
1:37 AM 55.4 °F 53.6 °F 94% 30.00 in 2.0 mi Calm Calm - N/A   Mostly Cloudy
1:40 AM 55.4 °F 53.6 °F 94% 30.00 in 0.8 mi Calm Calm - N/A   Mist
1:56 AM 54.0 °F 54.0 °F 100% 29.99 in 3.0 mi Calm Calm - N/A   Overcast
2:14 AM 53.6 °F 53.6 °F 100% 30.00 in 1.8 mi Calm Calm - N/A   Overcast
2:25 AM 53.6 °F 53.6 °F 100% 30.00 in 0.2 mi Calm Calm - N/A Fog Fog
2:56 AM 54.0 °F 54.0 °F 100% 29.99 in 0.2 mi Calm Calm - N/A Fog Fog
3:56 AM 54.0 °F 54.0 °F 100% 30.00 in 0.8 mi Calm Calm - N/A   Mist
4:10 AM 53.6 °F 53.6 °F 100% 30.01 in 0.2 mi Calm Calm - N/A Fog Fog
4:24 AM 53.6 °F 51.8 °F 94% 30.02 in 0.8 mi Calm Calm - N/A   Mist
4:56 AM 53.1 °F 53.1 °F 100% 30.02 in 0.2 mi Calm Calm - N/A Fog Fog
5:04 AM 53.6 °F 53.6 °F 100% 30.03 in 0.2 mi Calm Calm - N/A Fog Fog
5:15 AM 53.6 °F 53.6 °F 100% 30.03 in 0.5 mi Calm Calm - N/A Fog Fog
5:33 AM 53.6 °F 53.6 °F 100% 30.02 in 0.2 mi Calm Calm - N/A Fog Fog
5:45 AM 55.4 °F 53.6 °F 94% 30.03 in 0.5 mi Calm Calm - N/A Fog Fog
5:54 AM 55.4 °F 53.6 °F 94% 30.03 in 0.5 mi Calm Calm - N/A Fog Fog
5:56 AM 55.0 °F 54.0 °F 96% 30.02 in 0.5 mi Calm Calm - N/A Fog Fog
6:02 AM 55.4 °F 55.4 °F 100% 30.03 in 0.2 mi Calm Calm - N/A Fog Fog
6:56 AM 55.0 °F 55.0 °F 100% 30.04 in 0.2 mi Calm Calm - N/A Fog Fog
7:56 AM 57.0 °F 57.0 °F 100% 30.06 in 0.2 mi Calm Calm - N/A Fog Fog
8:08 AM 57.2 °F 57.2 °F 100% 30.08 in 0.5 mi Calm Calm - N/A Fog Fog
8:38 AM 60.8 °F 60.8 °F 100% 30.08 in 2.0 mi North 4.6 mph - N/A   Overcast
8:46 AM 60.8 °F 60.8 °F 100% 30.08 in 5.0 mi NNE 4.6 mph - N/A   Overcast
8:56 AM 61.0 °F 60.1 °F 97% 30.07 in 7.0 mi North 4.6 mph - N/A   Overcast
9:08 AM 62.6 °F 60.8 °F 94% 30.08 in 7.0 mi NNE 3.5 mph - N/A   Overcast
9:56 AM 66.0 °F 61.0 °F 84% 30.07 in 10.0 mi NNE 5.8 mph - N/A   Overcast
10:54 AM 69.8 °F 62.6 °F 78% 30.09 in 10.0 mi NE 5.8 mph - N/A   Overcast
10:56 AM 69.1 °F 62.1 °F 78% 30.08 in 10.0 mi NE 8.1 mph - N/A   Overcast
11:14 AM 69.8 °F 60.8 °F 73% 30.10 in 10.0 mi NE 5.8 mph - N/A   Overcast
11:34 AM 69.8 °F 60.8 °F 73% 30.10 in 10.0 mi NE 4.6 mph - N/A   Overcast
11:56 AM 69.1 °F 61.0 °F 75% 30.09 in 10.0 mi NE 5.8 mph - N/A   Overcast
12:53 PM 71.6 °F 60.8 °F 69% 30.08 in 10.0 mi NE 5.8 mph - N/A   Mostly Cloudy
12:56 PM 73.0 °F 61.0 °F 66% 30.07 in 10.0 mi NE 6.9 mph - N/A   Mostly Cloudy
1:04 PM 73.4 °F 60.8 °F 65% 30.08 in 10.0 mi ENE 9.2 mph - N/A   Overcast
1:11 PM 73.4 °F 60.8 °F 65% 30.08 in 10.0 mi NE 8.1 mph - N/A   Mostly Cloudy
1:56 PM 71.1 °F 61.0 °F 70% 30.06 in 10.0 mi ENE 6.9 mph - N/A   Overcast
2:38 PM 69.8 °F 62.6 °F 78% 30.08 in 10.0 mi ENE 9.2 mph - N/A   Mostly Cloudy
2:56 PM 70.0 °F 62.1 °F 76% 30.07 in 10.0 mi NE 8.1 mph - N/A   Overcast
3:56 PM 73.9 °F 61.0 °F 64% 30.06 in 10.0 mi Variable 5.8 mph - N/A   Scattered Clouds
4:56 PM 75.0 °F 61.0 °F 62% 30.06 in 10.0 mi NE 6.9 mph - N/A   Scattered Clouds
5:56 PM 75.0 °F 61.0 °F 62% 30.06 in 10.0 mi East 6.9 mph - N/A   Clear
6:56 PM 73.0 °F 59.0 °F 61% 30.06 in 10.0 mi East 4.6 mph - N/A   Partly Cloudy
7:56 PM 70.0 °F 60.1 °F 71% 30.09 in 10.0 mi Calm Calm - N/A   Mostly Cloudy
8:56 PM 64.9 °F 60.1 °F 84% 30.10 in 10.0 mi Calm Calm - N/A   Clear
9:56 PM 64.0 °F 60.1 °F 87% 30.11 in 10.0 mi Calm Calm - N/A   Clear
10:56 PM 62.1 °F 60.1 °F 93% 30.14 in 10.0 mi NE 4.6 mph - N/A   Partly Cloudy
11:27 PM 62.6 °F 60.8 °F 94% 30.15 in 10.0 mi ENE 6.9 mph - N/A   Mostly Cloudy
11:56 PM 63.0 °F 60.1 °F 90% 30.15 in 10.0 mi NE 5.8 mph - N/A   Scattered Clouds